Location: Chena
(64.8152°N, 147.9227°W)
Time: 18:33:33
(UTC+00:00)

O/OREOS (USA 219) - Visible Passes

Search period start: 16 April 2021 00:00
Search period end: 26 April 2021 00:00
Orbit: 621 x 646 km, 72.0° (Epoch: 22 May)

Date Brightness Start Highest point End Pass type
(mag) Time Alt. Az. Time Alt. Az. Time Alt. Az.
16 Apr ? 07:32:21 10° NW 07:36:43 50° WSW 07:40:21 14° SSE visible
16 Apr ? 09:12:49 10° WNW 09:15:13 14° W 09:17:36 10° SW visible
17 Apr ? 07:54:34 10° NW 07:58:35 32° WSW 08:02:07 13° S visible
18 Apr ? 06:37:02 10° NW 06:41:32 71° SW 06:46:02 10° SSE visible
18 Apr ? 08:16:57 10° WNW 08:20:20 21° WSW 08:23:43 10° SSW visible
19 Apr ? 06:59:10 10° NW 07:03:30 47° WSW 07:07:50 10° SSE visible
19 Apr ? 08:39:47 10° WNW 08:41:57 13° W 08:44:07 10° SW visible
20 Apr ? 07:21:24 10° NW 07:25:21 30° WSW 07:29:19 10° S visible
21 Apr ? 07:43:49 10° WNW 07:47:05 20° WSW 07:50:21 10° SSW visible
22 Apr ? 08:06:47 10° WNW 08:08:41 13° W 08:10:36 10° SW visible
24 Apr ? 07:10:42 10° WNW 07:13:50 19° WSW 07:16:59 10° SSW visible
25 Apr ? 07:33:50 10° WNW 07:35:25 12° W 07:37:01 10° WSW visible
